Time,TemperatureF,DewpointF,PressureIn,WindDirection,WindDirectionDegrees,WindSpeedMPH,WindSpeedGustMPH,Humidity,HourlyPrecipIn,Conditions,Clouds,dailyrainin,SoftwareType,DateUTC
2013-09-09 00:23:00,76.0,68.0,29.93,South,170,7.0,7.0,76,0.00,,,0.00,,2013-09-09 05:23:00,
2013-09-09 00:53:00,75.0,68.0,29.94,South,180,7.0,7.0,78,0.00,,,0.00,,2013-09-09 05:53:00,
2013-09-09 01:21:00,75.0,68.0,29.94,South,180,7.0,7.0,78,0.00,,,0.00,,2013-09-09 06:21:00,
2013-09-09 02:52:00,74.0,69.0,29.93,South,170,5.0,5.0,84,0.00,,,0.00,,2013-09-09 07:52:00,
2013-09-09 03:11:00,74.0,69.0,29.93,South,170,5.0,5.0,84,0.00,,,0.00,,2013-09-09 08:11:00,
2013-09-09 03:22:00,74.0,69.0,29.93,South,170,5.0,5.0,84,0.00,,,0.00,,2013-09-09 08:22:00,
2013-09-09 03:52:00,74.0,70.0,29.92,South,180,7.0,7.0,87,0.00,,,0.00,,2013-09-09 08:52:00,
2013-09-09 04:22:00,74.0,70.0,29.92,South,180,7.0,7.0,87,0.00,,,0.00,,2013-09-09 09:22:00,
2013-09-09 04:54:00,74.0,71.0,29.91,South,170,7.0,7.0,90,0.00,,,0.00,,2013-09-09 09:54:00,
2013-09-09 05:23:00,74.0,71.0,29.91,South,170,7.0,7.0,90,0.00,,,0.00,,2013-09-09 10:23:00,
2013-09-09 05:52:00,74.0,70.0,29.90,SSE,160,7.0,7.0,87,0.00,,,0.00,,2013-09-09 10:52:00,
2013-09-09 06:22:00,74.0,70.0,29.90,SSE,160,7.0,7.0,87,0.00,,,0.00,,2013-09-09 11:22:00,
2013-09-09 06:52:00,73.0,70.0,29.90,South,170,9.0,9.0,90,0.00,,,0.00,,2013-09-09 11:52:00,
2013-09-09 07:12:00,73.0,70.0,29.90,South,170,9.0,9.0,90,0.00,,,0.00,,2013-09-09 12:12:00,
2013-09-09 07:22:00,73.0,70.0,29.91,South,180,10.0,10.0,90,0.00,,,0.00,,2013-09-09 12:22:00,
2013-09-09 07:52:00,73.0,70.0,29.91,South,190,7.0,8.0,90,0.00,,,0.00,,2013-09-09 12:52:00,
2013-09-09 08:11:00,73.0,70.0,29.91,South,190,9.0,9.0,90,0.00,,,0.00,,2013-09-09 13:11:00,
2013-09-09 08:21:00,73.0,70.0,29.91,South,190,9.0,9.0,90,0.00,,,0.00,,2013-09-09 13:21:00,
2013-09-09 08:52:00,74.0,70.0,29.92,South,190,9.0,9.0,87,0.00,,,0.00,,2013-09-09 13:52:00,
2013-09-09 09:22:00,74.0,70.0,29.92,South,190,9.0,9.0,87,0.00,,,0.00,,2013-09-09 14:22:00,
2013-09-09 09:52:00,78.0,70.0,29.92,SSW,210,9.0,9.0,76,0.00,,,0.00,,2013-09-09 14:52:00,
2013-09-09 10:22:00,78.0,70.0,29.92,SSW,210,9.0,9.0,76,0.00,,,0.00,,2013-09-09 15:22:00,
2013-09-09 10:53:00,82.0,71.0,29.92,SW,220,10.0,10.0,69,0.00,,,0.00,,2013-09-09 15:53:00,
2013-09-09 11:24:00,82.0,71.0,29.92,SW,220,10.0,10.0,69,0.00,,,0.00,,2013-09-09 16:24:00,
2013-09-09 11:54:00,87.0,71.0,29.91,SW,220,10.0,10.0,59,0.00,,,0.00,,2013-09-09 16:54:00,
2013-09-09 12:23:00,87.0,71.0,29.91,SW,220,10.0,10.0,59,0.00,,,0.00,,2013-09-09 17:23:00,
2013-09-09 12:53:00,91.0,70.0,29.90,South,190,10.0,10.0,50,0.00,,,0.00,,2013-09-09 17:53:00,
2013-09-09 13:13:00,91.0,70.0,29.90,South,190,10.0,10.0,50,0.00,,,0.00,,2013-09-09 18:13:00,
2013-09-09 13:21:00,91.0,70.0,29.90,South,190,10.0,10.0,50,0.00,,,0.00,,2013-09-09 18:21:00,
2013-09-09 13:52:00,93.0,68.0,29.89,SW,230,8.0,8.0,45,0.00,,,0.00,,2013-09-09 18:52:00,
2013-09-09 14:12:00,93.0,68.0,29.89,SW,230,8.0,8.0,45,0.00,,,0.00,,2013-09-09 19:12:00,
2013-09-09 14:22:00,93.0,68.0,29.89,SW,230,8.0,8.0,45,0.00,,,0.00,,2013-09-09 19:22:00,
2013-09-09 14:52:00,97.0,68.0,29.88,WSW,240,10.0,10.0,39,0.00,,,0.00,,2013-09-09 19:52:00,
2013-09-09 15:12:00,97.0,68.0,29.88,WSW,240,10.0,10.0,39,0.00,,,0.00,,2013-09-09 20:12:00,
2013-09-09 15:22:00,97.0,68.0,29.88,WSW,240,10.0,10.0,39,0.00,,,0.00,,2013-09-09 20:22:00,
2013-09-09 15:53:00,96.0,68.0,29.87,SSW,210,9.0,9.0,41,0.00,,,0.00,,2013-09-09 20:53:00,
2013-09-09 16:22:00,96.0,68.0,29.87,SSW,210,9.0,9.0,41,0.00,,,0.00,,2013-09-09 21:22:00,
2013-09-09 16:54:00,97.0,69.0,29.86,SSW,200,13.0,13.0,40,0.00,,,0.00,,2013-09-09 21:54:00,
2013-09-09 17:24:00,97.0,69.0,29.86,SSW,200,13.0,13.0,40,0.00,,,0.00,,2013-09-09 22:24:00,
2013-09-09 17:54:00,96.0,68.0,29.86,SW,230,16.0,16.0,41,0.00,,,0.00,,2013-09-09 22:54:00,
2013-09-09 18:22:00,96.0,68.0,29.86,SW,230,16.0,16.0,41,0.00,,,0.00,,2013-09-09 23:22:00,
2013-09-09 18:52:00,94.0,71.0,29.87,SSW,210,13.0,13.0,47,0.00,,,0.00,,2013-09-09 23:52:00,
2013-09-09 19:12:00,94.0,71.0,29.87,SSW,210,13.0,13.0,47,0.00,,,0.00,,2013-09-10 00:12:00,
2013-09-09 19:21:00,94.0,71.0,29.87,SSW,210,13.0,13.0,47,0.00,,,0.00,,2013-09-10 00:21:00,
2013-09-09 19:42:00,90.0,71.0,29.88,SSW,210,10.0,13.0,53,0.00,,,0.00,,2013-09-10 00:42:00,
2013-09-09 19:52:00,90.0,71.0,29.88,SSW,210,10.0,10.0,53,0.00,,,0.00,,2013-09-10 00:52:00,
2013-09-09 20:42:00,87.0,71.0,29.89,SSW,200,10.0,10.0,60,0.00,,,0.00,,2013-09-10 01:42:00,
2013-09-09 20:53:00,87.0,71.0,29.89,SSW,200,10.0,10.0,60,0.00,,,0.00,,2013-09-10 01:53:00,
2013-09-09 21:52:00,85.0,73.0,29.90,SSW,210,10.0,10.0,67,0.00,,,0.00,,2013-09-10 02:52:00,
2013-09-09 22:54:00,83.0,73.0,29.92,SSW,200,8.0,8.0,72,0.00,,,0.00,,2013-09-10 03:54:00,
2013-09-09 23:24:00,83.0,73.0,29.92,SSW,200,8.0,8.0,72,0.00,,,0.00,,2013-09-10 04:24:00,
2013-09-09 23:53:00,80.0,72.0,29.93,South,190,6.0,6.0,76,0.00,,,0.00,,2013-09-10 04:53:00,